Content
SEND FEEDBACK

Daily
Averages
Monthly
Summary
United Kingdom

HATFIELD, ENGLAND


Home > Europe > United Kingdom > England
Elevation: 251 feet     Latitude: 51 46N     Longitude: 000 15W

WEATHER
 
SELECT A DAY
Number of Records: 291,248;   Date Range: 7/1/96 - 9/21/14
 
SHARE

PRINT THIS DATA

[ ← Previous Day ]
WEATHER ALMANAC - OCTOBER 1, 2013
[ Next Day → ]
[ °C ]   °F
Weather ElementAverageHighLow
Temperature55 °F60.8 °F (11:20 am)48.2 °F (12:50 am)
Dewpoint50.9 °F55.4 °F (10:20 am)46.4 °F (12:50 am)
Humidity86.9 %100 % (1:20 am)68 % (1:20 pm)
Barometer29.80 in29.83 in (7:50 pm)29.77 in (3:20 am)
Wind Speed11.1 mph18.4 mph (1:20 pm)
Weather ElementAverage
Visibility4.8 mi
Wind DirectionESE (101.9 °)

Weather ElementTotal
Precipitation---
Heating Degree Days10.5 (Base 65)
Growing Degree Days4.5 (Base 50)
Averaged from 47 records on October 1, 2013
WEATHER CONDITIONS BREAKOUT
WIND DIRECTION BREAKOUT
WEATHER BY HOUR - OCTOBER 1, 2013
[ °C ]   °F
Local TimeTemperatureDewpointHumidityBarometerVisibilityWind DirectionWind SpeedGust SpeedPrecipitationEventsConditions
12:50 AM48.2 °F46.4 °F93 %29.80 inENE (70°)4.6 mphMist
1:20 AM48.2 °F48.2 °F100 %29.80 inENE (60°)5.8 mphMist
1:50 AM48.2 °F48.2 °F100 %29.80 inENE (60°)4.6 mphMist
2:20 AM48.2 °F48.2 °F100 %29.80 in3.1 miEast (80°)5.8 mphMist
2:50 AM50.0 °F50.0 °F100 %29.80 inEast (90°)5.8 mphMist
3:20 AM50.0 °F50.0 °F100 %29.77 in3.1 miEast (90°)8.1 mphMist
3:50 AM50.0 °F50.0 °F100 %29.77 in3.1 miEast (90°)8.1 mphMist
4:20 AM50.0 °F50.0 °F100 %29.77 in3.1 miEast (80°)6.9 mphMist
4:50 AM50.0 °F48.2 °F94 %29.80 in1.9 miEast (90°)5.8 mphMist
5:20 AM50.0 °F50.0 °F100 %29.80 in1.7 miEast (90°)6.9 mphMist
5:50 AM50.0 °F50.0 °F100 %29.77 in2.2 miEast (80°)6.9 mphMist
6:20 AM50.0 °F50.0 °F100 %29.77 inEast (90°)8.1 mphMist
6:50 AM50.0 °F50.0 °F100 %29.77 in2.2 miEast (90°)9.2 mphMist
7:20 AM50.0 °F50.0 °F100 %29.77 in1.8 miEast (80°)8.1 mphMist
7:50 AM50.0 °F50.0 °F100 %29.80 in1.5 miENE (70°)8.1 mphMist
8:20 AM51.8 °F51.8 °F100 %29.80 inEast (90°)8.1 mphScattered Clouds
8:50 AM51.8 °F51.8 °F100 %29.80 in1.9 miEast (100°)10.4 mphOvercast
9:20 AM53.6 °F53.6 °F100 %29.80 in1.6 miESE (110°)12.7 mphOvercast
9:50 AM53.6 °F53.6 °F100 %29.80 inESE (110°)13.8 mphOvercast
10:20 AM55.4 °F55.4 °F100 %29.80 in2.5 miEast (100°)12.7 mphMostly Cloudy
10:50 AM59.0 °F55.4 °F88 %29.80 in3.7 miEast (100°)13.8 mphMostly Cloudy
11:20 AM60.8 °F55.4 °F82 %29.80 in5.6 miESE (110°)13.8 mphScattered Clouds
11:50 AM59.0 °F53.6 °F82 %29.80 in6.2 miESE (110°)13.8 mphMostly Cloudy
12:20 PM60.8 °F53.6 °F77 %29.80 in6.2 miESE (110°)15.0 mphScattered Clouds
12:50 PM60.8 °F51.8 °F72 %29.80 in6.2 miESE (120°)16.1 mphScattered Clouds
1:20 PM60.8 °F50.0 °F68 %29.80 in6.2 miESE (110°)18.4 mphMostly Cloudy
1:50 PM60.8 °F51.8 °F72 %29.80 in6.2 miESE (120°)13.8 mphMostly Cloudy
2:20 PM60.8 °F50.0 °F68 %29.80 in6.2 miESE (120°)15.0 mphMostly Cloudy
2:50 PM60.8 °F50.0 °F68 %29.80 in6.2 miESE (120°)17.3 mphScattered Clouds
3:20 PM60.8 °F50.0 °F68 %29.80 in6.2 miESE (120°)15.0 mphScattered Clouds
3:50 PM60.8 °F50.0 °F68 %29.80 in6.2 miESE (120°)15.0 mphPartly Cloudy
4:20 PM59.0 °F50.0 °F72 %29.80 inESE (110°)13.8 mphClear
4:50 PM59.0 °F50.0 °F72 %29.80 in6.2 miESE (110°)13.8 mphScattered Clouds
5:20 PM59.0 °F50.0 °F72 %29.80 in6.2 miEast (100°)11.5 mphMostly Cloudy
5:50 PM57.2 °F50.0 °F77 %29.80 in6.2 miESE (110°)12.7 mphMostly Cloudy
6:20 PM57.2 °F50.0 °F77 %29.80 in6.2 miESE (110°)12.7 mphPartly Cloudy
6:50 PM55.4 °F50.0 °F82 %29.80 in6.2 miESE (110°)12.7 mphScattered Clouds
7:20 PM55.4 °F50.0 °F82 %29.80 in6.2 miESE (110°)11.5 mphScattered Clouds
7:50 PM57.2 °F50.0 °F77 %29.83 in6.2 miESE (120°)12.7 mphScattered Clouds
8:20 PM55.4 °F51.8 °F88 %29.83 in6.2 miESE (110°)11.5 mphMostly Cloudy
8:50 PM55.4 °F51.8 °F88 %29.83 in6.2 miESE (110°)13.8 mphMostly Cloudy
9:20 PM55.4 °F51.8 °F88 %29.83 in6.2 miESE (120°)11.5 mphMostly Cloudy
9:50 PM57.2 °F51.8 °F82 %29.83 in6.2 miESE (120°)11.5 mphMostly Cloudy
10:20 PM57.2 °F51.8 °F82 %29.83 in6.2 miESE (120°)10.4 mphMostly Cloudy
10:50 PM57.2 °F51.8 °F82 %29.83 in6.2 miESE (120°)11.5 mphOvercast
11:20 PM57.2 °F51.8 °F82 %29.83 in6.2 miESE (120°)10.4 mphMostly Cloudy
11:50 PM57.2 °F51.8 °F82 %29.83 in6.2 miESE (110°)11.5 mphMostly Cloudy
Hourly data recorded from EGGW, located miles away from Hatfield, England







STORIES FROM OUR PARTNERS